Douglas Bisbee, AZ

1:42 AM MST on June 27, 2017 (GMT -0700)
Bisbee Douglas International

Weather History for KDUG - December, 2013

Change the Weather History Date:

Wednesday, December 18, 2013

  Actual Average Record
Temperature  
Mean Temperature 47 °F 46 °F  
Max Temperature 63 °F 62 °F 74 °F (1980)
Min Temperature 31 °F 29 °F 17 °F (1968)
Degree Days  
Heating Degree Days 18 20  
Month to date heating degree days 347 332  
Since 1 July heating degree days 793 767  
Cooling Degree Days 0 0  
Month to date cooling degree days 0 0  
Year to date cooling degree days 1842 1813  
Moisture  
Dew Point 24 °F    
Average Humidity 45    
Maximum Humidity 69    
Minimum Humidity 21    
Precipitation  
Precipitation 0.00 in 0.03 in 0.87 in (1987)
Month to date precipitation 0.25 0.58  
Year to date precipitation 17.88 12.71  
Sea Level Pressure  
Sea Level Pressure 30.03 in    
Wind  
Wind Speed 4 mph (SE)    
Max Wind Speed 10 mph    
Max Gust Speed 12 mph    
Visibility 10 miles    
Events      
T = Trace of Precipitation, MM = Missing Value Source: NWS Daily Summary

Daily Weather History Graph

Daily Weather History Graph

Search for Another Location

Airport or City:

Trip Planner

Search our weather history database for the weather conditions in past years. The results will help you decide how hot, cold, wet, or windy it might be!

Date:

Astronomy

Dec. 18, 2013 Rise Set
Actual Time 7:12 AM MST 5:18 PM MST
Civil Twilight 6:45 AM MST 5:45 PM MST
Nautical Twilight 6:14 AM MST 6:15 PM MST
Astronomical Twilight 5:45 AM MST 6:45 PM MST
Moon 6:47 PM MST (12/18) 7:58 AM MST (12/18)
Length of Visible Light 10h 59m
Length of Day
10h 06m
Full, 98% of the Moon is Illuminated
Dec 18
Full
Dec 25
Last Quarter
Jan 1
New
Jan 7
First Quarter
Jan 15
Full

Hourly Weather History & Observations

Time (MST) Temp. Windchill Dew Point Humidity Pressure Visibility Wind Dir Wind Speed Gust Speed Precip Events Conditions
12:56 AM 35.1 °F - 21.9 °F 59% 30.11 in 10.0 mi Calm Calm - N/A   Clear
1:56 AM 37.0 °F 32.4 °F 25.0 °F 62% 30.09 in 10.0 mi ENE 5.8 mph - N/A   Clear
2:56 AM 35.1 °F - 23.0 °F 61% 30.08 in 10.0 mi Calm Calm - N/A   Clear
3:56 AM 33.1 °F - 23.0 °F 66% 30.09 in 10.0 mi Calm Calm - N/A   Clear
4:56 AM 33.1 °F - 24.1 °F 70% 30.08 in 10.0 mi Calm Calm - N/A   Clear
5:56 AM 34.0 °F - 23.0 °F 64% 30.10 in 10.0 mi Calm Calm - N/A   Clear
6:56 AM 33.1 °F - 23.0 °F 66% 30.12 in 10.0 mi Calm Calm - N/A   Clear
7:56 AM 33.1 °F - 23.0 °F 66% 30.15 in 10.0 mi Calm Calm - N/A   Clear
8:56 AM 41.0 °F - 25.0 °F 53% 30.14 in 10.0 mi Calm Calm - N/A   Clear
9:56 AM 51.1 °F - 26.1 °F 38% 30.12 in 10.0 mi Calm Calm - N/A   Clear
10:56 AM 55.0 °F - 24.1 °F 30% 30.10 in 10.0 mi SW 4.6 mph - N/A   Clear
11:56 AM 57.9 °F - 21.0 °F 24% 30.07 in 10.0 mi Calm Calm - N/A   Clear
12:56 PM 59.0 °F - 24.1 °F 26% 30.03 in 10.0 mi South 6.9 mph - N/A   Clear
1:56 PM 61.0 °F - 24.1 °F 24% 29.98 in 10.0 mi South 4.6 mph - N/A   Clear
2:56 PM 62.1 °F - 23.0 °F 22% 29.96 in 10.0 mi SSE 9.2 mph - N/A   Clear
3:56 PM 62.1 °F - 24.1 °F 23% 29.96 in 10.0 mi SSE 6.9 mph - N/A   Clear
4:56 PM 57.9 °F - 27.0 °F 31% 29.96 in 10.0 mi SE 6.9 mph - N/A   Clear
5:56 PM 53.1 °F - 25.0 °F 34% 29.96 in 10.0 mi ESE 9.2 mph - N/A   Clear
6:56 PM 46.9 °F - 25.0 °F 42% 29.98 in 10.0 mi Calm Calm - N/A   Clear
7:56 PM 44.1 °F 41.5 °F 26.1 °F 49% 29.98 in 10.0 mi East 4.6 mph - N/A   Clear
8:56 PM 43.0 °F 39.5 °F 26.1 °F 51% 29.96 in 10.0 mi East 5.8 mph - N/A   Clear
9:56 PM 46.0 °F 42.5 °F 25.0 °F 44% 29.91 in 10.0 mi ESE 6.9 mph - N/A   Clear
10:56 PM 46.0 °F 41.0 °F 26.1 °F 46% 29.88 in 10.0 mi ESE 10.4 mph - N/A   Clear
11:56 PM 45.0 °F 40.1 °F 26.1 °F 48% 29.86 in 10.0 mi SE 9.2 mph - N/A   Clear